Wetbulb
75.02 74.13 74.57 70.92 60.45 60.22 57.52 60.14 64.33 62.58 61.74 66.52 67.38 65.76 64.83 66.72 63.57 58.92 71.37 73.69 74.61 75.17 75.89 76.67 78.09 78.57 78.53 78.31 78.36 78.28 78.22 77.88 78.27 78.50 78.06 78.19 78.10 78.39 77.93 78.15 77.76 78.31 76.92 76.81 76.56 76.42 75.90 76.31 76.15
71.82 73.86 69.09 66.62 55.72 54.38 56.55 63.00 61.23 63.31 65.03 67.44 67.51 67.02 65.58 63.48 68.43 68.65 70.33 73.27 74.68 75.02 75.62 76.34 77.77 78.38 78.53 78.23 78.32 78.70 78.02 77.72 78.23 78.13 78.11 77.35 77.42 77.83 77.41 77.50 77.14 77.51 77.60 77.20 76.70 76.37 76.01 76.73 77.54
73.15 73.68 63.43 60.19 58.13 55.00 56.29 62.54 61.84 65.62 67.22 67.01 65.65 68.07 67.42 65.25 69.55 69.54 72.24 73.11 74.07 73.85 74.95 76.21 78.27 78.77 78.81 78.84 78.80 78.64 78.51 78.37 78.01 77.15 77.09 76.77 76.82 76.79 76.58 76.61 77.06 76.89 77.07 77.11 77.03 77.28 76.29 75.45 75.32
71.61 70.77 66.87 59.29 56.06 60.65 60.79 62.60 64.86 64.96 67.13 67.82 67.11 64.12 68.86 71.82 70.32 71.56 72.89 73.26 72.11 72.82 75.91 77.85 78.82 78.14 78.74 78.59 79.10 78.73 78.78 78.51 77.62 77.05 76.68 76.65 76.23 76.11 76.05 75.74 76.12 76.37 76.40 76.17 76.04 76.09 76.39 76.51 76.47
70.63 67.65 59.80 59.34 59.15 62.61 65.11 66.18 66.34 64.90 65.50 65.92 66.65 64.09 66.65 70.85 72.20 72.31 72.10 72.54 72.13 73.51 76.16 77.23 78.40 78.88 78.97 79.20 79.07 78.51 77.75 77.23 76.47 75.67 75.75 75.67 75.83 75.84 75.99 75.50 75.01 75.12 75.26 75.84 76.06 75.21 74.68 74.48 75.40
64.87 66.26 57.04 53.93 58.76 63.41 64.31 66.97 66.28 64.90 66.05 66.55 65.78 65.36 66.23 71.36 71.34 71.82 72.76 73.32 73.65 73.52 75.62 76.85 78.14 78.91 79.08 78.23 78.07 78.41 77.32 77.14 76.05 75.51 74.96 74.90 74.42 74.97 75.62 75.38 74.57 74.15 74.57 74.71 75.07 74.90 74.51 74.93 74.96
64.03 61.72 58.55 57.16 58.64 60.74 62.45 66.49 63.90 65.04 65.41 65.76 68.20 63.47 66.36 69.59 71.90 72.26 72.81 74.16 73.42 72.66 74.01 75.46 75.47 76.61 77.61 78.77 77.87 77.76 77.29 76.61 75.67 75.48 74.87 74.17 74.00 72.97 73.27 74.53 74.05 73.71 73.26 74.01 75.01 75.32 75.59 75.45 75.29
64.68 62.24 58.99 58.06 57.05 58.07 65.12 65.88 65.76 64.99 65.54 70.23 69.65 62.97 62.86 69.73 72.27 72.59 72.99 72.92 72.96 72.56 72.94 73.64 74.78 74.97 75.81 76.33 78.25 77.28 77.09 76.15 74.74 75.13 74.42 74.04 74.91 73.20 72.48 72.45 72.95 73.80 73.38 74.12 75.59 76.04 75.93 75.65 75.72
66.21 57.14 56.00 57.57 59.44 60.91 64.57 62.34 64.88 67.22 67.16 69.06 69.38 67.85 68.99 71.65 71.89 71.59 71.54 71.67 72.19 72.97 73.27 73.59 73.98 74.43 74.16 74.49 75.98 77.25 76.58 75.65 74.84 73.16 74.23 73.01 70.05 68.96 69.37 71.08 72.51 73.25 73.74 74.54 75.34 76.09 76.42 76.20 76.47
58.81 54.57 58.31 61.77 62.48 61.47 64.08 64.11 62.97 64.24 65.04 67.25 67.69 69.68 70.64 71.56 71.26 70.46 69.74 69.99 70.19 70.75 72.23 73.71 74.19 74.11 73.71 74.79 73.81 73.80 74.42 74.17 73.14 72.49 72.00 70.78 69.45 68.76 69.54 70.51 72.38 73.13 74.37 74.85 75.59 76.09 76.53 75.84 72.52
59.43 57.20 59.94 61.17 62.63 65.43 64.41 63.85 64.35 63.56 62.64 66.52 65.68 67.52 69.13 69.79 70.12 70.27 69.92 70.23 70.34 71.61 72.13 72.87 73.55 73.65 73.61 73.40 73.86 73.52 72.55 71.41 71.86 72.58 72.47 71.30 69.92 67.65 67.97 68.00 68.93 68.64 72.22 70.53 71.87 72.77 73.98 72.26 70.00
56.74 61.49 61.32 62.63 64.81 65.12 63.66 66.00 64.07 64.75 66.62 69.34 69.09 69.12 68.73 67.79 68.75 69.78 69.31 70.44 70.68 70.83 71.33 72.30 72.34 72.14 72.45 73.57 73.09 72.24 72.20 70.28 70.58 72.54 72.45 71.97 71.08 68.97 67.32 67.54 68.51 68.34 68.67 68.35 69.59 70.31 72.02 71.89 71.42
57.25 61.21 61.30 62.84 62.11 63.02 64.19 63.79 63.64 62.60 68.93 70.00 69.68 69.22 68.05 67.91 67.98 69.96 70.50 71.37 70.55 70.17 71.39 72.60 72.39 72.52 72.59 72.61 73.54 72.65 71.95 71.42 71.26 72.16 72.50 72.21 71.04 70.78 70.24 69.96 68.79 68.64 68.30 68.46 70.25 70.54 71.07 71.84 71.14
59.59 60.57 59.58 60.96 61.22 61.49 62.74 63.35 64.05 65.14 69.29 68.71 68.62 67.76 67.86 67.80 67.78 68.08 69.14 69.46 69.55 69.82 70.67 73.18 73.02 73.16 72.70 72.26 72.57 72.50 71.10 70.80 71.79 72.01 72.12 72.62 72.02 71.70 71.01 70.09 70.32 70.71 70.23 69.16 70.82 70.97 70.51 70.81 71.70
59.01 56.75 59.20 59.41 59.40 61.39 62.81 60.52 63.41 66.58 68.89 67.56 67.44 67.43 68.06 68.01 68.22 67.54 68.15 68.78 69.89 70.07 71.27 72.65 73.44 73.89 72.64 72.90 72.37 71.47 69.53 69.72 68.64 71.99 72.47 72.38 72.46 72.30 71.57 70.72 70.40 70.69 71.66 71.82 71.29 70.72 71.50 70.72 71.66
56.45 58.06 54.46 59.58 59.18 60.47 57.48 53.22 62.13 64.74 66.97 66.50 67.40 67.86 68.07 67.79 67.88 68.45 68.76 69.43 70.63 70.42 71.05 72.82 74.76 74.00 73.51 73.71 73.26 72.47 71.61 71.35 70.60 71.60 72.52 72.55 72.79 72.44 71.95 71.39 71.36 71.71 71.36 71.22 71.37 71.36 70.56 69.93 69.08
55.53 50.38 54.61 57.19 59.20 58.67 56.12 54.55 61.34 63.67 65.43 65.69 66.83 67.34 67.70 67.50 67.47 68.51 69.25 70.16 70.85 70.58 71.31 72.26 72.78 73.27 73.46 74.31 73.46 73.14 72.68 72.51 72.53 72.15 71.73 71.63 72.93 72.78 72.39 71.71 71.73 72.70 71.65 71.33 71.57 71.11 69.64 69.16 69.95
50.74 50.88 53.31 52.91 55.61 56.11 53.28 52.38 58.35 61.92 61.78 64.77 65.55 66.99 67.29 67.52 67.59 68.80 69.46 70.26 71.22 71.51 71.94 72.09 72.63 73.21 73.52 74.36 73.12 73.35 72.41 72.66 72.86 72.53 71.01 72.22 72.76 72.88 72.20 72.05 72.35 72.11 71.67 71.32 71.98 70.18 70.88 71.04 70.96
51.74 49.62 51.13 54.14 56.18 54.30 53.06 51.99 54.06 56.75 60.43 62.24 63.22 65.70 66.75 67.56 69.14 70.03 70.34 70.79 70.88 71.98 71.78 73.05 72.03 73.94 74.33 73.31 72.35 71.73 70.58 70.18 70.54 71.73 71.65 71.28 72.53 72.80 71.62 70.63 72.51 72.65 71.36 71.42 71.62 70.78 70.25 69.57 70.15
51.59 50.34 50.86 54.25 56.57 52.60 51.55 51.98 54.73 57.83 57.87 60.13 62.46 65.65 66.48 67.39 68.21 69.72 70.22 70.64 71.03 71.67 72.69 73.94 73.85 72.84 72.58 73.25 73.19 72.97 72.40 72.46 72.49 72.38 71.85 71.37 71.50 73.19 71.09 71.40 70.98 71.71 71.55 71.66 71.21 70.17 69.11 69.65 70.80
50.14 50.24 50.32 51.67 54.19 53.11 51.73 53.68 56.32 59.82 60.91 61.42 60.06 65.55 67.02 67.11 67.71 68.94 69.00 70.19 71.19 72.17 72.88 74.71 72.94 70.79 70.29 69.82 69.69 73.06 73.14 72.67 72.32 72.40 72.10 72.06 71.83 73.33 72.53 71.63 70.10 69.67 71.80 70.83 70.65 70.20 69.42 68.01 69.84
47.86 53.32 53.27 52.86 48.20 44.49 51.81 46.42 54.00 56.94 57.55 59.70 60.03 60.53 65.51 66.33 68.04 68.08 69.13 67.16 66.95 73.17 74.75 75.77 75.09 71.88 70.64 71.73 69.84 72.34 71.70 69.77 71.02 72.05 72.41 72.78 73.66 73.17 72.61 71.67 70.65 70.18 70.87 69.95 70.43 71.58 70.85 69.59 67.27
51.27 54.85 53.46 53.52 48.61 45.66 49.81 50.47 51.10 55.18 53.53 57.24 60.55 62.98 63.24 67.00 68.07 67.28 67.27 66.44 66.58 71.33 74.93 76.08 75.47 74.76 73.73 73.14 72.35 73.77 72.31 71.30 71.37 71.42 72.25 73.17 73.16 73.25 72.55 71.72 71.32 70.20 70.62 70.82 70.11 69.99 71.16 70.36 68.66
55.76 52.15 51.57 50.04 47.20 41.94 50.85 49.74 49.81 52.44 55.41 56.23 59.26 62.51 64.23 64.57 67.62 66.87 65.47 65.69 65.88 67.90 74.33 76.26 76.12 75.23 75.51 75.11 74.20 74.75 73.49 72.16 72.28 70.64 71.92 72.43 72.89 72.68 72.56 71.97 71.63 71.38 71.21 71.41 71.54 70.54 70.95 71.17 71.01
51.40 45.97 40.39 41.72 44.51 42.80 49.40 50.48 49.98 55.29 58.10 58.91 59.28 61.11 64.50 63.50 63.26 63.48 64.56 65.81 65.14 66.19 72.25 75.48 75.84 75.93 76.29 76.14 75.88 75.23 74.69 73.60 72.82 71.89 72.05 71.67 71.80 71.83 72.74 72.94 71.88 71.38 71.67 71.99 72.20 71.22 70.42 70.30 69.72
48.66 48.16 41.53 39.22 41.10 44.69 51.89 46.28 52.09 58.89 59.19 59.93 62.05 64.95 68.89 67.94 67.90 66.10 67.06 66.05 65.12 68.40 71.27 73.98 74.47 74.43 75.76 76.24 76.14 76.21 75.52 75.56 73.86 73.49 72.84 72.61 71.90 72.31 72.30 73.65 72.11 73.17 72.92 72.94 73.02 72.85 72.51 72.40 71.35
48.48 44.92 49.40 44.95 46.77 45.72 48.72 52.97 57.77 59.78 59.51 60.12 61.23 67.62 66.41 66.48 68.28 68.08 70.70 71.22 70.39 69.90 71.73 72.88 74.44 74.63 75.71 75.46 75.56 75.61 76.35 75.82 75.18 74.01 73.36 72.84 65.72 70.45 73.39 68.45 69.01 72.95 74.22 73.26 72.81 72.87 72.72 72.25 71.59
52.88 51.66 45.48 47.96 43.41 43.87 47.32 49.16 49.92 54.89 57.14 59.32 65.02 65.61 66.35 66.06 63.33 63.51 69.74 69.42 70.29 70.67 71.41 73.35 75.62 74.90 76.20 76.34 75.66 75.53 75.51 75.81 75.90 75.02 73.89 72.86 69.27 69.02 72.95 72.41 72.17 72.87 73.76 73.48 73.33 72.68 72.58 71.65 71.70
48.70 47.12 48.52 47.90 47.38 42.06 41.26 46.23 55.88 54.93 57.21 57.81 64.11 63.98 61.15 60.69 59.03 63.11 67.88 68.96 68.74 70.77 71.09 70.97 73.06 73.64 73.24 74.44 73.76 74.84 75.26 75.76 75.69 75.21 75.08 74.03 73.37 73.37 73.32 72.78 72.21 72.06 72.37 72.98 71.85 71.30 71.78 70.76 70.76
54.15 51.66 51.07 44.77 45.07 46.53 47.83 46.18 59.38 58.33 59.68 60.39 64.60 65.53 64.47 59.81 62.23 66.46 67.31 63.97 64.13 67.47 70.42 69.81 71.32 69.97 70.77 71.76 72.54 74.84 74.48 73.62 73.14 73.63 74.12 73.98 73.73 71.11 73.10 70.26 73.21 72.59 72.66 72.01 71.06 70.38 70.91 70.56 70.52
MSLP
1007.60 1008.46 1008.17 1008.28 1010.34 1010.33 1008.12 1006.02 1004.65 1003.90 1003.55 1003.77 1003.39 1003.92 1005.34 1005.62 1006.58 1009.36 1010.29 1010.95 1011.81 1012.51 1012.95 1013.28 1013.50 1013.93 1014.21 1014.50 1014.86 1015.15 1015.36 1015.72 1016.03 1016.14 1016.40 1016.62 1016.77 1016.99 1017.18 1017.33 1017.63 1017.76 1017.89 1017.97 1018.00 1018.00 1018.03 1017.97 1018.18
1007.25 1008.51 1009.08 1009.12 1010.74 1010.04 1007.19 1005.27 1004.25 1004.09 1004.00 1003.73 1003.72 1004.47 1005.53 1006.98 1007.17 1009.22 1010.59 1011.19 1011.46 1012.32 1012.93 1013.35 1013.67 1014.12 1014.50 1014.63 1014.87 1015.29 1015.51 1015.75 1016.11 1016.36 1016.54 1016.92 1016.91 1016.92 1017.49 1017.66 1017.87 1018.06 1018.13 1018.13 1018.23 1018.26 1018.38 1018.35 1018.33
1007.46 1007.73 1010.41 1010.97 1010.23 1008.58 1006.21 1004.92 1003.61 1003.75 1003.81 1003.90 1004.30 1004.89 1006.02 1007.69 1008.40 1009.03 1010.34 1011.08 1011.53 1012.39 1013.07 1013.51 1013.85 1014.20 1014.62 1014.87 1015.14 1015.37 1015.65 1015.87 1016.22 1016.65 1016.81 1017.18 1017.44 1016.99 1017.54 1017.93 1018.20 1018.28 1018.33 1018.49 1018.45 1018.51 1018.67 1018.77 1018.61
1005.78 1008.57 1011.50 1011.17 1008.73 1006.28 1004.77 1004.53 1003.93 1004.20 1004.06 1004.29 1004.47 1005.47 1006.64 1007.03 1007.81 1008.87 1010.05 1010.82 1011.64 1012.46 1013.20 1013.67 1014.11 1014.43 1014.83 1015.17 1015.31 1015.69 1015.96 1016.15 1016.48 1016.71 1016.66 1017.06 1017.56 1017.43 1017.69 1018.12 1018.42 1018.55 1018.49 1018.53 1018.68 1018.87 1018.87 1018.95 1018.74
1005.77 1008.27 1009.59 1008.79 1006.43 1004.75 1004.56 1003.72 1003.59 1004.25 1004.26 1004.73 1005.06 1006.02 1006.92 1007.72 1008.17 1009.12 1009.98 1010.59 1011.53 1012.68 1013.24 1013.78 1014.16 1014.54 1014.88 1015.19 1015.52 1015.89 1016.22 1016.38 1016.64 1016.80 1017.03 1017.19 1017.46 1017.78 1017.94 1018.28 1018.57 1018.78 1018.77 1018.76 1018.87 1018.96 1018.94 1019.02 1018.77
1005.45 1006.80 1007.61 1006.90 1005.72 1004.84 1003.88 1003.83 1004.40 1004.73 1004.87 1005.34 1005.69 1006.30 1007.51 1008.23 1008.56 1009.13 1009.66 1010.70 1011.68 1012.66 1013.38 1013.89 1014.37 1014.61 1014.97 1015.34 1015.64 1015.98 1016.26 1016.60 1016.80 1016.94 1017.09 1017.13 1017.44 1017.70 1017.88 1018.43 1018.67 1018.84 1018.95 1018.99 1018.99 1019.04 1019.10 1019.05 1018.93
1004.56 1005.57 1006.05 1005.79 1005.23 1004.72 1004.03 1004.44 1004.93 1005.08 1005.17 1004.85 1005.43 1006.67 1008.22 1008.44 1008.59 1009.17 1009.79 1010.79 1011.69 1012.52 1013.45 1013.99 1014.44 1014.74 1015.17 1015.48 1015.86 1016.18 1016.50 1016.80 1017.00 1017.08 1017.26 1017.43 1017.25 1017.54 1018.23 1018.28 1018.80 1018.91 1018.95 1018.99 1019.06 1019.16 1019.05 1019.01 1018.92
1002.23 1003.78 1004.59 1004.75 1004.60 1004.26 1003.93 1004.33 1004.94 1004.99 1004.98 1004.80 1004.92 1006.32 1007.58 1008.12 1008.52 1009.28 1009.86 1010.72 1011.78 1012.77 1013.18 1013.85 1014.34 1014.71 1015.14 1015.56 1015.85 1016.31 1016.72 1017.04 1017.10 1017.29 1017.50 1017.63 1017.64 1017.46 1017.93 1018.34 1018.69 1018.84 1018.93 1019.07 1019.01 1019.02 1018.95 1019.08 1019.04
1000.76 1002.99 1004.17 1003.65 1003.65 1004.83 1004.50 1004.34 1005.07 1004.63 1004.76 1004.33 1004.85 1005.50 1006.60 1007.75 1008.60 1009.39 1010.26 1011.15 1011.84 1012.58 1013.14 1013.47 1014.08 1014.71 1015.23 1015.79 1016.34 1016.56 1016.88 1017.14 1017.32 1017.47 1017.67 1017.79 1017.93 1017.73 1017.96 1018.18 1018.55 1018.75 1018.88 1019.00 1018.94 1018.92 1018.87 1018.87 1018.78
1000.54 1001.92 1002.25 1002.42 1002.73 1003.56 1004.01 1004.21 1004.92 1004.90 1005.08 1004.83 1005.26 1005.96 1006.65 1007.92 1008.72 1009.42 1010.18 1011.02 1011.81 1012.22 1012.72 1013.20 1013.56 1014.16 1015.02 1015.55 1015.77 1016.39 1016.78 1017.17 1017.22 1017.44 1017.59 1017.89 1018.05 1018.10 1018.05 1018.17 1018.35 1018.58 1018.79 1018.88 1018.84 1018.92 1018.67 1018.52 1018.82
1000.04 1000.89 1001.29 1001.57 1001.67 1002.50 1003.23 1003.35 1004.69 1005.37 1005.29 1004.84 1005.49 1006.13 1006.68 1008.00 1008.65 1009.20 1010.04 1010.18 1010.81 1011.58 1012.20 1012.66 1013.20 1013.58 1014.28 1014.78 1015.68 1015.95 1017.20 1017.24 1017.15 1017.27 1017.61 1017.74 1018.04 1018.16 1018.13 1018.30 1018.40 1018.59 1018.62 1018.74 1018.86 1018.79 1018.46 1018.53 1018.91
999.98 1000.37 1000.64 1001.01 1001.09 1002.07 1002.63 1003.25 1005.77 1005.45 1004.46 1004.54 1005.35 1006.08 1006.76 1007.34 1008.15 1008.83 1009.78 1010.08 1010.61 1010.98 1011.29 1012.07 1012.67 1013.37 1013.69 1014.41 1015.13 1016.05 1016.65 1016.98 1016.83 1016.87 1017.25 1017.72 1017.93 1018.09 1018.17 1018.27 1018.35 1018.45 1018.52 1018.63 1018.78 1018.70 1018.07 1018.25 1018.59
999.80 1000.05 1000.26 1000.49 1000.65 1001.03 1001.36 1002.85 1003.65 1004.36 1004.16 1004.50 1005.40 1006.14 1006.78 1007.16 1007.53 1008.12 1008.70 1009.28 1010.08 1010.53 1011.05 1011.55 1012.12 1012.93 1013.45 1014.01 1015.19 1015.98 1016.53 1016.61 1016.41 1016.46 1016.63 1017.19 1017.67 1017.77 1018.05 1018.10 1018.12 1018.15 1018.21 1018.34 1018.52 1018.31 1018.11 1017.90 1018.06
999.62 999.66 999.99 1000.23 1000.33 1000.54 1001.13 1002.28 1002.64 1004.01 1003.81 1004.43 1005.09 1006.01 1006.60 1006.93 1007.14 1007.74 1008.40 1009.06 1009.60 1009.83 1010.71 1011.33 1012.03 1012.60 1013.10 1013.78 1014.77 1015.33 1016.34 1015.99 1015.84 1016.04 1016.15 1016.58 1017.21 1017.43 1017.60 1017.82 1017.82 1017.87 1017.90 1017.81 1017.90 1018.07 1018.00 1017.90 1017.78
999.53 999.90 999.88 1000.02 1000.12 1000.52 1000.89 1002.25 1002.51 1002.89 1003.20 1004.02 1004.83 1005.49 1005.98 1006.45 1006.69 1007.32 1007.75 1008.38 1008.88 1009.45 1010.22 1011.01 1011.71 1012.24 1012.85 1013.22 1013.73 1014.68 1014.97 1015.41 1015.53 1015.93 1016.09 1016.46 1016.86 1017.08 1017.16 1017.58 1017.61 1017.45 1017.44 1017.42 1017.41 1017.44 1017.33 1017.36 1016.82
999.92 1000.05 1000.21 1000.04 1000.13 1000.39 1000.83 1001.74 1001.79 1001.96 1002.52 1003.40 1004.20 1004.84 1005.41 1005.76 1006.27 1006.84 1007.24 1007.90 1008.47 1009.21 1010.00 1010.72 1011.23 1011.97 1012.53 1012.77 1013.03 1013.80 1014.35 1015.02 1015.64 1015.87 1015.93 1016.29 1016.55 1016.49 1017.16 1017.29 1017.25 1017.15 1017.19 1017.21 1017.21 1017.30 1017.47 1017.31 1017.02
1000.15 1000.51 1000.29 1000.08 999.91 1000.12 1000.64 1001.40 1001.24 1001.17 1001.90 1002.66 1003.31 1004.14 1004.91 1005.45 1005.98 1006.48 1006.88 1007.61 1008.18 1008.97 1009.59 1010.27 1010.87 1011.51 1011.99 1012.55 1012.95 1013.32 1013.74 1014.46 1014.94 1015.51 1015.90 1016.11 1016.41 1016.54 1016.70 1017.03 1016.89 1016.68 1016.74 1016.86 1016.93 1017.07 1017.27 1017.29 1017.01
1000.27 1000.29 999.87 999.79 1000.00 1000.03 1000.43 1000.83 1000.86 1000.95 1001.33 1001.94 1002.64 1003.49 1004.24 1004.91 1005.47 1006.11 1006.71 1007.07 1007.91 1008.58 1009.23 1009.95 1010.67 1011.23 1011.79 1012.44 1013.03 1013.56 1013.89 1014.17 1014.53 1014.99 1015.55 1015.70 1015.91 1016.23 1015.89 1016.17 1016.43 1016.32 1016.47 1016.46 1016.57 1016.77 1016.78 1016.97 1017.02
999.70 999.86 999.65 999.42 999.61 1000.05 1000.70 1001.04 1000.80 1000.63 1001.05 1001.66 1002.29 1002.99 1003.65 1004.19 1004.70 1005.45 1006.19 1006.80 1007.61 1008.35 1009.36 1009.91 1010.66 1011.22 1011.78 1012.55 1012.91 1013.64 1014.17 1014.45 1014.74 1014.64 1014.86 1014.95 1015.37 1015.52 1015.56 1015.72 1015.91 1015.87 1016.02 1016.25 1016.22 1016.39 1016.72 1016.83 1016.86
999.84 999.73 999.73 999.71 999.74 1000.27 1000.84 1001.39 1001.14 1001.23 1001.35 1001.42 1001.99 1002.64 1003.06 1003.56 1004.28 1005.18 1006.02 1006.59 1007.33 1008.17 1009.02 1009.80 1010.40 1011.12 1011.54 1011.96 1012.39 1012.88 1013.39 1013.62 1013.81 1014.03 1014.18 1014.65 1014.97 1015.21 1015.37 1015.46 1015.68 1015.62 1015.75 1015.83 1015.68 1015.98 1016.38 1016.50 1016.42
999.91 1000.03 999.97 1000.13 1000.17 1000.49 1001.17 1002.90 1002.66 1002.59 1002.16 1001.94 1001.46 1002.09 1002.24 1002.36 1003.35 1004.74 1006.14 1006.48 1006.54 1007.55 1008.51 1009.53 1010.19 1010.97 1011.31 1011.66 1012.12 1012.64 1012.98 1013.18 1013.74 1013.90 1014.08 1014.30 1014.42 1014.43 1014.86 1015.08 1015.36 1015.49 1015.46 1015.56 1015.39 1015.51 1015.84 1016.18 1016.18
999.95 999.78 1000.02 1000.45 1000.99 1001.52 1001.47 1004.16 1004.43 1004.44 1003.76 1002.84 1002.46 1002.12 1001.91 1002.97 1004.72 1006.09 1007.09 1007.51 1008.33 1006.95 1007.77 1008.72 1009.78 1010.67 1011.26 1011.29 1011.86 1012.22 1012.63 1013.19 1013.18 1013.12 1013.46 1013.85 1013.93 1014.17 1014.44 1014.69 1015.12 1015.39 1015.48 1015.36 1015.15 1015.00 1015.20 1015.75 1016.11
999.86 999.74 1000.36 1000.91 1001.70 1002.37 1002.47 1004.54 1005.49 1005.30 1004.30 1003.39 1003.04 1002.62 1003.88 1004.51 1006.55 1005.42 1006.61 1006.89 1008.00 1008.50 1007.49 1008.28 1009.24 1010.18 1010.69 1011.03 1011.28 1011.81 1012.27 1012.48 1012.44 1012.67 1013.04 1013.37 1013.63 1013.70 1013.95 1014.39 1014.73 1014.95 1015.32 1015.38 1015.10 1014.97 1015.00 1015.08 1015.62
999.63 1000.15 1000.77 1001.46 1002.55 1003.74 1004.26 1004.80 1005.50 1005.78 1005.14 1004.04 1003.65 1003.52 1004.95 1003.75 1006.32 1006.93 1006.96 1007.13 1006.38 1008.00 1007.51 1007.81 1008.86 1009.72 1010.22 1010.57 1010.92 1011.38 1011.73 1011.85 1012.12 1012.53 1012.74 1012.86 1013.05 1013.37 1013.35 1013.45 1013.76 1013.81 1014.38 1014.86 1014.88 1014.74 1014.68 1014.76 1014.83
999.89 1000.75 1001.97 1003.02 1004.24 1004.91 1004.52 1005.73 1005.87 1004.80 1004.79 1004.11 1004.59 1004.98 1004.08 1005.30 1006.65 1008.16 1008.94 1007.21 1007.87 1008.15 1007.61 1007.73 1008.30 1009.13 1009.69 1010.10 1010.40 1010.75 1011.09 1011.38 1011.59 1011.74 1012.02 1012.30 1012.63 1012.57 1012.63 1013.31 1013.72 1013.62 1013.27 1013.89 1014.33 1014.42 1014.36 1014.40 1014.41
1000.16 1000.97 1002.26 1003.37 1004.64 1005.03 1005.29 1007.18 1006.23 1005.24 1004.70 1005.04 1005.05 1005.57 1004.24 1006.60 1007.53 1008.21 1007.72 1007.75 1008.03 1008.69 1007.84 1007.57 1008.21 1008.54 1009.17 1009.66 1009.97 1010.16 1010.33 1010.85 1010.87 1011.06 1011.18 1011.32 1011.78 1011.62 1012.29 1013.22 1013.22 1013.71 1013.10 1013.03 1013.47 1013.80 1013.82 1013.79 1013.94
999.94 1000.49 1001.02 1002.52 1003.51 1005.62 1007.83 1008.41 1007.04 1006.33 1005.59 1005.92 1006.07 1004.38 1004.87 1004.68 1006.39 1006.16 1006.40 1007.14 1008.91 1009.58 1007.82 1007.46 1007.39 1006.80 1008.02 1009.25 1009.51 1009.81 1009.94 1010.23 1010.29 1010.36 1010.36 1010.58 1010.62 1011.14 1011.59 1011.83 1011.65 1012.51 1012.21 1012.54 1012.87 1013.22 1013.14 1013.31 1013.23
999.54 1000.25 1001.28 1002.42 1004.40 1007.90 1008.81 1009.52 1009.33 1008.48 1006.39 1005.89 1005.31 1005.74 1006.04 1006.90 1006.66 1006.66 1006.81 1007.27 1007.90 1009.30 1008.26 1007.67 1007.07 1006.19 1005.50 1008.14 1008.79 1009.08 1009.31 1009.43 1009.52 1009.56 1009.67 1010.11 1010.11 1010.61 1010.56 1010.81 1011.01 1011.42 1011.56 1011.53 1011.93 1012.61 1012.53 1012.55 1012.53
999.98 1000.45 1001.58 1002.68 1004.02 1006.40 1008.58 1008.90 1007.82 1007.45 1005.53 1006.40 1005.37 1006.05 1006.77 1007.12 1007.18 1007.43 1007.76 1008.19 1008.83 1008.69 1009.40 1009.30 1008.88 1008.42 1008.23 1008.31 1008.47 1008.70 1008.94 1008.93 1008.94 1008.96 1009.11 1009.53 1010.11 1010.16 1010.25 1010.70 1010.66 1010.53 1010.88 1011.03 1011.33 1011.68 1011.67 1012.00 1012.07
1000.40 1001.49 1001.70 1003.52 1004.24 1004.98 1006.04 1006.89 1005.88 1006.61 1005.53 1006.38 1005.80 1006.40 1006.92 1007.32 1007.83 1008.22 1008.90 1008.94 1008.93 1009.24 1009.25 1009.40 1009.36 1009.38 1009.17 1008.51 1008.50 1008.20 1008.48 1008.51 1008.68 1008.76 1008.79 1008.91 1009.32 1009.94 1010.63 1010.57 1010.39 1009.62 1010.20 1010.67 1010.99 1011.10 1011.24 1011.50 1011.50
Wind_Speed
7 4 3 5 7 1 4 1 1 7 11 11 16 14 12 7 5 6 13 19 20 15 13 15 20 20 20 20 20 20 20 20 19 19 18 17 17 16 17 15 15 14 14 14 13 12 12 13 12
2 9 7 3 6 4 4 6 8 10 11 14 18 19 18 15 16 21 15 19 20 17 13 14 20 20 20 20 21 20 20 21 19 19 19 18 18 18 15 16 15 14 12 12 12 10 9 9 9
21 18 5 2 2 6 1 5 10 17 18 14 13 13 9 11 20 7 22 21 20 15 14 15 20 19 20 20 19 20 20 20 20 19 19 18 16 21 17 15 13 12 12 10 8 9 9 6 5
9 6 4 4 6 8 12 11 22 1 16 18 16 12 10 17 9 15 23 22 19 16 15 18 19 19 19 19 19 18 18 19 18 19 21 20 16 19 17 15 11 9 9 9 8 7 5 5 4
4 4 1 5 6 6 15 12 17 9 19 21 17 17 18 17 24 23 22 19 18 16 14 16 19 19 19 17 17 17 17 17 16 17 18 18 18 18 17 14 10 7 6 4 6 4 3 2 3
3 4 2 4 6 8 5 16 13 13 14 18 17 16 13 23 19 18 17 18 19 17 14 14 18 19 18 19 18 17 17 16 15 14 14 17 16 16 17 12 8 5 3 1 2 2 2 3 4
8 9 2 4 2 4 8 18 13 9 7 12 14 17 13 19 17 19 17 19 18 18 14 11 12 14 19 16 16 16 16 15 14 12 11 11 17 14 10 11 4 3 1 2 3 4 5 4 5
5 5 5 4 4 4 8 6 3 9 6 16 18 8 13 17 16 16 15 13 18 15 16 12 9 8 8 9 17 17 16 14 12 10 8 8 5 11 12 7 3 2 2 3 6 6 6 6 8
8 6 3 3 4 14 17 7 5 4 4 4 4 14 17 24 21 14 12 13 13 13 14 14 13 9 8 6 9 13 15 12 9 8 7 5 1 2 7 9 6 2 3 6 8 8 9 8 9
6 5 4 6 6 14 14 9 1 3 2 15 17 16 16 25 19 16 14 14 14 16 16 15 15 14 11 10 8 6 5 3 2 4 5 3 2 2 5 7 11 8 8 10 11 11 12 10 2
4 4 8 7 4 19 12 7 10 4 2 16 18 16 14 23 16 16 14 18 16 17 15 16 15 14 15 10 7 5 2 3 4 5 4 5 3 3 2 1 1 2 8 3 6 5 5 5 2
10 5 8 6 3 16 10 8 14 12 10 17 18 16 13 10 19 19 17 16 16 16 14 16 15 13 12 9 9 10 8 6 7 7 6 4 3 4 3 3 3 4 3 5 4 3 6 5 6
8 2 9 9 7 7 5 15 16 15 18 20 17 15 13 10 11 17 19 19 13 12 14 15 16 10 8 10 8 6 7 7 7 6 7 5 4 4 3 3 4 4 5 6 5 5 4 5 6
4 4 7 9 6 5 6 7 9 10 19 19 18 15 12 10 10 11 13 16 14 9 15 14 15 13 10 7 9 10 8 8 5 6 7 8 4 4 5 4 5 4 4 6 5 5 4 6 8
5 6 1 7 5 3 7 6 1 15 18 20 18 16 16 12 10 11 10 14 16 10 17 16 14 13 13 10 9 8 5 5 4 5 7 8 7 5 7 5 4 6 4 5 4 5 4 4 4
7 4 3 3 8 5 7 5 8 13 19 19 20 17 14 12 12 9 9 14 15 12 16 17 14 14 12 10 9 7 6 5 6 5 6 8 8 9 5 5 6 5 4 5 4 4 4 5 4
5 2 6 6 7 6 7 5 8 11 16 18 19 18 16 11 10 9 9 14 15 12 16 15 13 14 11 8 6 6 9 6 7 7 6 8 7 5 2 4 5 6 4 4 4 3 3 4 4
7 6 7 7 8 6 2 8 3 12 10 17 15 18 16 13 12 11 10 9 13 10 13 15 13 13 9 6 5 4 3 5 6 6 7 8 6 7 8 7 6 5 4 4 3 4 3 3 3
7 3 3 1 6 4 3 5 10 5 11 12 11 15 16 16 13 15 12 10 10 13 11 12 13 8 9 6 6 4 5 4 3 4 7 7 6 9 10 7 7 5 4 4 3 3 4 3 2
8 7 5 5 3 5 7 9 9 7 3 8 12 16 17 16 13 16 14 10 10 14 13 13 13 11 7 6 5 3 4 4 5 7 8 7 8 8 8 8 6 6 4 6 5 4 1 2 3
6 1 4 0 3 4 6 6 7 7 10 15 7 15 16 20 18 19 6 12 11 14 14 13 14 11 7 6 3 2 3 2 3 5 5 7 9 7 8 7 6 5 4 4 4 4 5 3 1
4 4 4 6 4 5 6 4 6 7 8 10 6 9 15 7 24 18 6 5 12 15 15 14 15 13 9 8 6 6 5 4 4 5 5 7 10 9 9 8 6 6 4 6 6 6 4 4 4
8 6 5 4 6 4 5 7 7 7 6 6 10 8 10 24 15 25 13 11 13 8 15 14 14 12 10 9 7 6 5 5 4 4 6 6 8 9 10 9 8 8 6 6 6 5 5 4 4
7 3 8 6 2 4 6 8 5 5 7 6 15 14 14 25 20 19 16 12 11 8 11 15 15 13 11 11 10 8 8 7 5 4 5 7 6 7 10 10 9 8 7 7 7 8 6 6 5
4 3 5 6 5 5 2 7 10 6 12 11 15 13 18 18 17 14 8 21 9 9 10 14 15 13 12 13 11 11 8 8 7 8 6 6 5 5 9 9 8 8 9 8 6 8 9 7 6
7 4 6 2 3 2 11 4 13 9 10 5 8 7 17 12 7 18 14 13 3 15 9 12 10 8 9 9 10 8 8 5 5 6 6 7 5 6 7 7 9 13 11 9 8 7 7 8 8
11 5 10 5 3 7 4 3 5 14 16 17 4 13 11 14 3 11 10 16 8 7 8 10 11 12 10 8 7 7 8 7 6 8 6 5 5 3 5 11 14 15 11 10 10 9 11 8 9
3 6 7 5 4 4 5 0 4 3 18 15 14 11 8 5 5 6 9 12 10 8 7 3 6 6 12 9 8 7 7 7 7 7 7 6 6 4 9 10 10 11 11 10 10 9 9 7 7
2 5 4 2 3 7 5 7 9 14 19 12 10 10 8 7 6 4 7 11 15 10 8 6 4 5 4 6 5 8 7 7 7 6 7 6 8 10 0 4 7 7 7 8 7 7 8 7 7
8 6 5 5 5 3 7 6 14 17 20 9 12 8 8 6 4 4 13 11 12 13 14 8 7 6 4 4 5 5 7 6 6 6 6 4 4 5 10 11 9 3 5 5 6 6 6 7 9
Wind_Direction
100 115 219 45 43 69 289 95 84 356 79 80 61 78 78 39 102 143 128 125 125 130 134 131 127 128 125 121 117 117 116 115 112 110 106 104 100 98 98 94 94 96 96 93 95 100 108 108 108
85 140 18 105 90 286 254 171 67 60 88 89 74 86 70 72 87 115 116 131 129 131 135 134 132 134 133 131 127 126 122 119 118 116 111 108 107 95 82 85 87 85 85 97 103 105 105 109 111
73 76 60 32 146 217 226 33 62 63 67 86 78 77 76 105 122 109 129 137 129 137 134 139 140 140 141 138 133 130 130 127 126 121 112 111 106 101 94 82 80 83 86 90 95 105 114 119 126
133 70 104 280 207 251 95 233 84 82 112 109 111 77 98 129 111 131 136 136 141 131 129 142 143 145 145 139 140 137 134 130 134 132 128 120 109 102 96 90 77 76 94 93 88 81 93 125 171
94 91 72 261 199 338 48 61 92 54 101 99 98 94 109 107 121 129 135 140 124 125 131 141 146 149 147 146 143 139 139 135 140 141 136 129 119 103 93 89 88 78 71 82 105 109 116 162 228
128 112 218 25 25 329 24 90 80 52 94 101 103 102 107 125 130 132 128 115 124 129 133 143 149 148 151 159 152 151 146 143 147 149 151 148 135 111 102 83 82 79 73 40 100 189 202 234 258
230 128 200 121 193 1 61 99 58 81 141 144 123 115 132 136 138 130 131 129 129 134 134 137 150 154 158 157 161 158 153 152 155 153 158 165 143 124 115 108 75 32 332 292 257 229 236 248 257
177 106 168 153 141 146 95 66 40 74 182 132 133 142 159 152 132 134 135 134 134 139 142 148 148 149 151 162 160 163 160 164 166 165 177 198 202 143 166 151 137 248 273 284 280 256 255 269 273
130 83 304 142 103 72 67 73 63 241 107 108 135 133 146 146 143 133 140 131 135 145 150 152 152 153 154 138 159 162 166 172 183 201 203 218 20 191 198 185 198 257 291 279 276 272 269 274 274
92 109 134 132 132 129 104 28 215 63 3 112 122 130 141 141 140 147 144 147 153 156 159 160 159 161 157 161 169 147 170 107 75 205 196 175 182 241 189 206 219 241 266 275 272 267 269 274 357
111 135 91 54 27 116 136 164 165 183 229 120 124 135 147 145 153 150 154 164 169 170 167 167 166 171 162 168 142 147 192 140 193 248 230 197 177 221 243 256 302 262 255 265 269 272 252 223 229
92 82 109 124 274 130 156 128 60 317 130 128 134 143 154 164 165 161 175 172 178 172 171 167 166 174 169 150 161 173 169 184 186 204 215 197 183 188 213 218 234 235 254 253 238 242 240 217 230
105 180 141 150 217 143 175 127 138 213 118 122 133 151 164 183 174 162 174 170 182 169 161 167 161 163 155 146 142 140 187 187 186 186 193 200 195 200 209 224 220 216 223 243 242 228 233 243 249
158 224 182 178 167 185 118 126 115 172 128 133 148 159 172 192 191 156 172 153 166 152 163 148 158 156 152 153 140 157 183 171 178 192 190 189 185 190 211 228 238 243 223 240 219 209 211 228 236
229 228 203 154 119 103 96 131 163 153 140 148 160 166 175 194 187 170 163 161 158 171 159 158 159 157 158 166 155 155 175 157 184 198 186 199 203 194 208 224 231 240 243 247 256 269 285 268 262
241 228 128 212 163 175 131 256 184 165 152 158 165 170 176 182 181 167 165 169 164 170 156 161 163 165 166 167 167 156 179 164 185 202 186 208 201 208 204 226 238 227 232 237 233 223 246 247 258
244 12 223 187 194 181 159 205 223 178 165 165 171 169 173 175 176 167 180 168 165 174 157 164 163 171 173 149 144 152 179 182 168 177 192 199 199 178 131 231 233 223 217 223 238 254 223 249 272
248 220 179 166 194 175 91 295 242 191 167 172 169 165 170 174 173 164 170 169 166 160 157 166 165 169 162 140 135 116 135 145 163 173 185 199 181 174 165 234 237 207 214 232 224 216 253 245 270
351 332 0 205 109 89 158 254 291 234 170 165 159 166 167 178 172 166 169 176 159 150 164 142 154 149 152 155 159 161 170 173 192 193 182 195 175 176 190 201 223 207 199 215 214 190 219 259 228
302 272 300 100 70 130 220 231 242 53 54 167 156 171 172 179 162 166 166 176 158 157 155 141 151 152 151 154 160 157 154 195 170 190 191 195 195 189 196 201 203 201 196 224 216 157 205 250 178
274 76 51 230 315 305 282 23 45 354 35 14 338 177 183 176 161 160 138 181 157 153 159 151 154 162 155 154 146 131 113 83 147 189 185 191 204 195 194 199 196 218 205 203 199 178 187 198 276
307 63 24 333 10 262 205 188 350 339 322 5 303 336 176 132 86 58 23 342 313 162 160 148 154 161 172 171 170 175 171 170 198 184 185 186 195 199 202 200 202 218 218 201 209 195 190 157 224
266 22 330 286 274 320 297 75 274 347 341 6 355 270 343 97 160 149 229 224 256 272 157 155 157 160 169 182 190 183 175 192 190 185 190 190 195 197 198 200 200 204 212 221 228 228 200 178 188
290 305 292 279 222 357 5 110 274 218 222 249 240 297 167 161 173 151 223 325 197 254 170 154 156 171 176 184 191 190 197 197 197 190 196 188 186 193 206 205 201 209 203 216 214 228 227 189 206
292 283 319 336 42 211 348 63 243 234 235 207 213 260 81 124 146 135 200 239 256 267 168 153 162 173 182 187 190 199 198 198 200 194 191 177 188 200 210 207 222 223 215 207 197 212 231 224 221
254 199 179 207 174 223 53 91 286 253 239 285 225 241 83 86 59 159 212 230 268 238 162 160 162 160 175 178 200 192 197 202 197 199 194 196 197 206 180 115 311 251 222 208 206 215 227 224 221
264 272 244 183 185 84 4 300 345 11 336 278 274 84 81 84 221 50 34 70 118 263 172 165 169 172 158 189 193 203 201 192 202 220 210 185 206 235 179 193 212 230 210 208 209 223 225 216 224
258 255 348 345 91 32 16 273 253 36 253 258 105 108 103 74 15 38 48 53 33 60 273 174 204 236 145 191 204 206 211 201 209 212 224 195 220 231 240 199 214 222 215 220 204 221 233 219 212
288 270 314 99 115 137 153 255 194 224 238 284 122 116 135 128 132 95 76 70 30 24 66 36 355 284 252 220 203 211 199 212 204 214 218 214 194 212 331 26 247 200 219 223 225 224 221 220 213
47 10 37 102 294 156 135 264 144 202 243 193 96 127 157 139 93 108 79 73 44 23 354 356 11 21 351 317 295 226 189 198 203 223 229 240 250 140 122 246 256 206 244 247 228 225 246 230 224